Location: Erskine
(52.3216°N, 112.8806°W)
Time: 03:06:39
(UTC+00:00)

Envisat - Visible Passes

Search period start: 05 June 2023 00:00
Search period end: 15 June 2023 00:00
Orbit: 763 x 765 km, 98.2° (Epoch: 04 June)

Date Brightness Start Highest point End Pass type
(mag) Time Alt. Az. Time Alt. Az. Time Alt. Az.
07 Jun 5.6 10:00:28 10° NE 10:03:11 14° E 10:05:53 10° ESE visible
10 Jun 5.8 09:49:00 10° ENE 09:50:32 11° E 09:52:04 10° E visible
12 Jun 5.5 10:12:10 10° NE 10:15:38 18° E 10:19:05 10° SE visible
